EA1IDU Weather Reports


Display with metric or nautical units.
time (UTC)temp
F
wind
direction
speed
MPH
gust
MPH
rain 1hr
in
rain 24hr
in
rain mn
in
humidity
%
barometer
mb
20260504130111 47 11 2.0 4.0 0.05 0.41 0.26 93 1014.3
20260504120122 47 62 5.0 8.0 0.08 0.37 0.21 93 1014.6
20260504110110 47 42 6.0 9.0 0.01 0.28 0.13 91 1014.9
20260504090112 51 206 4.0 8.0 0.00 0.21 0.00 83 1014.2
20260504081046 50 229 5.0 8.0 0.00 0.24 0.00 84 1013.9
20260504070112 48 207 3.0 6.0 0.00 0.24 0.00 92 1013.8
20260504050111 48 180 4.0 6.0 0.00 0.24 0.00 91 1013.0
20260504045107 48 216 5.0 7.0 0.00 0.24 0.00 91 1013.0
20260504044103 48 197 3.0 6.0 0.00 0.24 0.00 91 1012.9
20260504043057 48 212 3.0 4.0 0.00 0.24 0.00 90 1012.9
20260504042113 48 176 4.0 7.0 0.00 0.24 0.00 90 1013.1
20260504041047 48 184 3.0 6.0 0.00 0.24 0.00 90 1013.0
20260504035036 48 176 4.0 7.0 0.00 0.24 0.00 90 1013.2
20260504034051 48 173 6.0 9.0 0.00 0.24 0.00 90 1013.3
20260504033026 48 190 3.0 6.0 0.00 0.24 0.00 91 1013.4
20260504032021 47 182 1.0 4.0 0.00 0.24 0.00 92 1013.5
20260504031036 47 181 3.0 6.0 0.00 0.24 0.00 92 1013.5
20260504030151 48 192 2.0 4.0 0.00 0.24 0.00 92 1013.4
20260504025106 48 206 1.0 4.0 0.00 0.24 0.00 92 1013.4
20260504024101 48 225 0.0 2.0 0.00 0.24 0.00 92 1013.4
20260504023056 48 248 0.0 4.0 0.00 0.24 0.00 92 1013.4
20260504022111 49 251 1.0 4.0 0.00 0.24 0.00 92 1013.3
20260504021106 48 0.0 0.0 0.00 0.24 0.00 93 1013.3
20260504015036 48 0.0 0.0 0.00 0.24 0.00 93 1013.5
20260504014031 48 334 1.0 2.0 0.00 0.24 0.00 93 1013.3
20260504013026 48 0.0 0.0 0.00 0.24 0.00 93 1013.6
20260504011016 48 0.0 2.0 0.00 0.24 0.00 92 1013.6
20260504010111 48 0.0 0.0 0.00 0.24 0.00 92 1013.6
20260504005105 48 45 0.0 2.0 0.00 0.24 0.00 92 1013.6
20260504004100 48 23 0.0 2.0 0.00 0.24 0.00 92 1013.7
20260504003055 48 5 1.0 2.0 0.00 0.24 0.00 91 1013.8
20260504002050 48 41 2.0 4.0 0.00 0.24 0.00 91 1013.8
20260504001045 48 344 2.0 4.0 0.00 0.24 0.00 90 1014.1
20260504000040 49 41 1.0 2.0 0.00 0.24 0.00 90 1014.0
20260503235035 49 10 1.0 4.0 0.00 0.24 0.00 89 1013.9
20260503234030 49 9 1.0 4.0 0.00 0.24 0.00 89 1013.9
20260503233025 49 21 1.0 6.0 0.00 0.24 0.00 89 1013.9
20260503232020 49 353 1.0 4.0 0.00 0.24 0.00 88 1013.9
20260503231116 50 0.0 0.0 0.00 0.24 0.00 87 1013.8
20260503230150 50 0 0.0 2.0 0.00 0.24 0.00 86 1013.7
20260503225125 51 0.0 0.0 0.00 0.24 0.00 85 1014.0
20260503224100 51 0.0 0.0 0.00 0.24 0.00 84 1013.9
20260503223116 51 188 0.0 2.0 0.00 0.24 0.00 84 1013.9
20260503222111 51 187 3.0 6.0 0.00 0.24 0.00 83 1013.9
20260503221046 51 166 5.0 8.0 0.00 0.24 0.00 83 1013.9
20260503220041 51 191 5.0 8.0 0.00 0.24 0.00 83 1013.8
20260503215035 51 193 3.0 6.0 0.00 0.24 0.24 82 1013.8
20260503214030 51 187 4.0 8.0 0.00 0.24 0.24 83 1013.9
20260503213025 52 195 4.0 6.0 0.00 0.24 0.24 82 1013.8
20260503212020 51 198 3.0 4.0 0.00 0.24 0.24 83 1013.7
20260503211115 51 195 3.0 6.0 0.00 0.24 0.24 86 1014.0
20260503210110 52 248 0.0 4.0 0.00 0.24 0.24 87 1013.8
20260503205125 53 0.0 0.0 0.00 0.24 0.24 85 1013.5
20260503204121 53 220 0.0 2.0 0.00 0.24 0.24 83 1013.4
20260503203116 52 182 1.0 2.0 0.00 0.24 0.24 84 1013.2
20260503202110 52 135 0.0 2.0 0.00 0.24 0.24 86 1013.0
20260503201046 53 68 1.0 2.0 0.00 0.24 0.24 84 1013.0
20260503200040 52 74 2.0 6.0 0.00 0.24 0.24 86 1013.0
20260503195056 53 288 4.0 6.0 0.00 0.24 0.24 84 1012.8
20260503194031 53 163 4.0 11.0 0.00 0.24 0.24 82 1012.8
20260503193026 54 204 5.0 8.0 0.00 0.24 0.24 82 1012.5
20260503192021 54 154 4.0 9.0 0.00 0.24 0.24 83 1012.4
20260503191016 54 116 6.0 11.0 0.00 0.24 0.24 83 1012.2
20260503190111 55 121 5.0 8.0 0.07 0.24 0.24 85 1012.4
20260503185106 55 189 3.0 8.0 0.07 0.24 0.24 86 1012.5
20260503184101 55 108 2.0 6.0 0.07 0.24 0.24 86 1012.3
20260503183057 55 190 2.0 4.0 0.07 0.24 0.24 85 1012.3
20260503182051 55 62 3.0 7.0 0.07 0.25 0.24 85 1012.1
20260503181046 55 186 6.0 13.0 0.07 0.26 0.24 83 1012.1
20260503180040 57 143 3.0 8.0 0.00 0.19 0.17 77 1012.0
20260503175116 57 79 3.0 7.0 0.00 0.19 0.17 77 1012.1
20260503174031 57 136 3.0 9.0 0.00 0.19 0.17 77 1012.2
20260503173026 56 146 5.0 11.0 0.00 0.19 0.17 78 1012.1
20260503172020 57 144 6.0 13.0 0.00 0.19 0.17 75 1012.0
20260503171017 57 138 5.0 9.0 0.00 0.19 0.17 73 1012.0
20260503170111 57 178 6.0 8.0 0.00 0.19 0.17 74 1011.9
20260503150132 58 128 1.0 2.0 0.00 0.19 0.08 69 1012.4